User: anonymous   Login
Location: Unspecified
(0.0000°N, 0.0000°E)
Time: 23:39:09
(UTC+00:00)
Language:

CORIOLIS - Orbit

View from above orbital plane
View from above orbital plane
View from above satellite
View from above satellite

Ground track
Ground track

The orbit data is extracted from the following two-line orbital elements,

1 27640U 03001A   17349.67660941  .00000014  00000-0  27753-4 0  9999
2 27640  98.7408 357.4201 0014717 142.9493 328.0576 14.18963973773684
Epoch (UTC): 15 December 2017 16:14:19
Eccentricity: 0.0014717
inclination: 98.7408°
perigee height: 818 km
apogee height: 839 km
right ascension of ascending node: 357.4201°
argument of perigee: 142.9493°
revolutions per day: 14.18963973
mean anomaly at epoch: 328.0576°
orbit number at epoch: 77368

The dashed part of the orbit path shows where the satellite is in the earth's shadow,  

DLR